| time (UTC) | temp F | wind direction | speed MPH | gust MPH | rain 1hr in | rain 24hr in | rain mn in | humidity % | barometer mb |
| 20260503200057 | 64 | 329 | 8.0 | 15.0 | 0.00 | 0.01 | 0.00 | 26 | 1003.4 |
| 20260503194547 | 64 | 311 | 8.0 | 15.0 | 0.00 | 0.01 | 0.00 | 25 | 1003.5 |
| 20260503193056 | 63 | 316 | 9.0 | 15.0 | 0.00 | 0.01 | 0.00 | 27 | 1003.6 |
| 20260503191549 | 63 | 330 | 6.0 | 15.0 | 0.00 | 0.01 | 0.00 | 22 | 1003.6 |
| 20260503190050 | 64 | 315 | 7.0 | 14.0 | 0.00 | 0.01 | 0.00 | 25 | 1003.8 |
| 20260503184551 | 64 | 322 | 8.0 | 18.0 | 0.00 | 0.01 | 0.00 | 23 | 1003.8 |
| 20260503183042 | 63 | 325 | 8.0 | 18.0 | 0.00 | 0.01 | 0.00 | 28 | 1003.9 |
| 20260503181555 | 63 | 328 | 9.0 | 17.0 | 0.00 | 0.01 | 0.00 | 24 | 1004.1 |
| 20260503180048 | 64 | 329 | 8.0 | 17.0 | 0.00 | 0.01 | 0.00 | 34 | 1004.1 |
| 20260503174544 | 62 | 340 | 8.0 | 17.0 | 0.00 | 0.01 | 0.00 | 36 | 1004.1 |
| 20260503173043 | 62 | 323 | 7.0 | 14.0 | 0.00 | 0.01 | 0.00 | 41 | 1004.2 |
| 20260503171530 | 62 | 295 | 7.0 | 15.0 | 0.00 | 0.01 | 0.00 | 42 | 1004.4 |
| 20260503081534 | 48 | 143 | 0.0 | 1.0 | 0.00 | 0.01 | 0.00 | 79 | 1005.0 |
| 20260503071509 | 51 | 124 | 0.0 | 4.0 | 0.00 | 0.01 | 0.00 | 76 | 1005.9 |
| 20260503054553 | 48 | 145 | 0.0 | 2.0 | 0.01 | 0.01 | 0.00 | 91 | 1007.1 |
| 20260503053051 | 48 | 158 | 0.0 | 1.0 | 0.01 | 0.01 | 0.00 | 90 | 1007.3 |
| 20260503051550 | 48 | 143 | 0.0 | 1.0 | 0.01 | 0.01 | 0.00 | 89 | 1007.2 |
| 20260503050046 | 49 | 145 | 0.0 | 2.0 | 0.01 | 0.01 | 0.00 | 83 | 1007.6 |
| 20260503044544 | 51 | 120 | 1.0 | 2.0 | 0.00 | 0.00 | 0.00 | 70 | 1008.1 |
| 20260503043040 | 52 | 257 | 0.0 | 2.0 | 0.00 | 0.00 | 0.00 | 58 | 1008.3 |
| 20260503041540 | 52 | 225 | 0.0 | 3.0 | 0.00 | 0.00 | 0.00 | 57 | 1008.3 |
| 20260503040040 | 53 | 232 | 0.0 | 3.0 | 0.00 | 0.00 | 0.00 | 57 | 1008.3 |
| 20260503034539 | 54 | 304 | 2.0 | 5.0 | 0.00 | 0.00 | 0.00 | 55 | 1008.3 |
| 20260503033040 | 53 | 232 | 0.0 | 2.0 | 0.00 | 0.00 | 0.00 | 58 | 1008.4 |
| 20260503031541 | 53 | 165 | 0.0 | 0.0 | 0.00 | 0.00 | 0.00 | 57 | 1008.4 |
| 20260503030056 | 54 | 148 | 0.0 | 1.0 | 0.00 | 0.00 | 0.00 | 56 | 1008.4 |
| 20260503024540 | 56 | 251 | 0.0 | 0.0 | 0.00 | 0.00 | 0.00 | 52 | 1008.5 |
| 20260503023037 | 57 | 289 | 0.0 | 1.0 | 0.00 | 0.00 | 0.00 | 49 | 1008.5 |
| 20260503021539 | 59 | 262 | 1.0 | 4.0 | 0.00 | 0.00 | 0.00 | 43 | 1008.4 |
| 20260503020036 | 59 | 245 | 0.0 | 4.0 | 0.00 | 0.00 | 0.00 | 43 | 1008.4 |
| 20260503014542 | 59 | 232 | 0.0 | 8.0 | 0.00 | 0.00 | 0.00 | 42 | 1008.4 |
| 20260503013034 | 59 | 248 | 3.0 | 10.0 | 0.00 | 0.00 | 0.00 | 42 | 1008.3 |
| 20260503011540 | 58 | 177 | 1.0 | 7.0 | 0.00 | 0.00 | 0.00 | 44 | 1008.3 |
| 20260503010033 | 58 | 145 | 0.0 | 3.0 | 0.00 | 0.00 | 0.00 | 44 | 1008.2 |
| 20260503004531 | 59 | 201 | 0.0 | 4.0 | 0.00 | 0.00 | 0.00 | 42 | 1008.4 |
| 20260503003030 | 59 | 172 | 0.0 | 4.0 | 0.00 | 0.00 | 0.00 | 43 | 1008.5 |
| 20260503001528 | 60 | 134 | 0.0 | 5.0 | 0.00 | 0.00 | 0.00 | 40 | 1008.7 |
| 20260503000032 | 61 | 253 | 1.0 | 7.0 | 0.00 | 0.00 | 0.00 | 38 | 1008.8 |
| 20260502234524 | 61 | 198 | 1.0 | 9.0 | 0.00 | 0.00 | 0.00 | 36 | 1009.1 |
| 20260502233023 | 62 | 232 | 0.0 | 8.0 | 0.00 | 0.00 | 0.00 | 37 | 1009.2 |
| 20260502231622 | 62 | 298 | 7.0 | 14.0 | 0.00 | 0.00 | 0.00 | 36 | 1009.3 |
| 20260502230020 | 63 | 257 | 2.0 | 14.0 | 0.00 | 0.00 | 0.00 | 35 | 1009.5 |
| 20260502224516 | 62 | 290 | 5.0 | 11.0 | 0.00 | 0.00 | 0.00 | 35 | 1009.7 |
| 20260502223015 | 62 | 259 | 4.0 | 11.0 | 0.00 | 0.00 | 0.00 | 35 | 1009.9 |
| 20260502221514 | 63 | 259 | 7.0 | 13.0 | 0.00 | 0.00 | 0.00 | 33 | 1010.0 |
| 20260502220013 | 62 | 257 | 2.0 | 12.0 | 0.00 | 0.00 | 0.00 | 34 | 1010.1 |
| 20260502214513 | 63 | 256 | 7.0 | 13.0 | 0.00 | 0.00 | 0.00 | 32 | 1010.2 |
| 20260502213019 | 63 | 284 | 3.0 | 13.0 | 0.00 | 0.00 | 0.00 | 32 | 1010.6 |
| 20260502211505 | 62 | 326 | 6.0 | 11.0 | 0.00 | 0.00 | 0.00 | 31 | 1010.6 |
| 20260502210002 | 61 | 214 | 8.0 | 17.0 | 0.00 | 0.00 | 0.00 | 31 | 1010.8 |
| 20260502204612 | 61 | 278 | 2.0 | 6.0 | 0.00 | 0.00 | 0.00 | 32 | 1011.1 |
| 20260502203114 | 61 | 297 | 2.0 | 8.0 | 0.00 | 0.00 | 0.00 | 36 | 1011.3 |
| 20260502201554 | 61 | 181 | 3.0 | 11.0 | 0.00 | 0.00 | 0.00 | 33 | 1011.7 |